This demonstration page uses our WeatherBlox Daily Observations layout. Learn more.

Left ArrowRight Arrow

Hourly Observations for May 11, 2021

Temp ( °F °C ) Dew Point ( °F °C ) Humidity (%) Winds ( mph kmh ) Pressure ( in mb ) Visibility ( mi km ) Precip ( " mm )
12:53 am 00:53 Mostly Cloudy 48 8.9 45 7.2 89 89 N N/A 30.16 1021 10 16 N/A
1:53 am 01:53 Partly Cloudy 47 8.3 45 7.2 93 93 NW 3 6 30.16 1022 10 16 N/A
2:53 am 02:53 Clear 48 8.9 42 5.6 80 80 NNW 3 6 30.16 1022 10 16 N/A
3:53 am 03:53 Clear 45 7.2 43 6.1 93 93 N N/A 30.16 1022 10 16 N/A
4:53 am 04:53 Cloudy 44 6.7 42 5.6 93 93 N N/A 30.18 1022 9 14 N/A
5:53 am 05:53 Cloudy 44 6.7 43 6.1 96 96 NW 5 7 30.21 1023 10 16 N/A
6:24 am 06:24 Cloudy 46 7.8 44 6.7 93 93 N N/A 30.23 1024 9 14 N/A
6:46 am 06:46 Mostly Cloudy 45 7.2 43 6.1 93 93 NNW 3 6 30.24 1024 10 16 N/A
6:53 am 06:53 Mostly Cloudy 46 7.8 44 6.7 93 93 N N/A 30.22 1023 10 16 N/A
7:53 am 07:53 Cloudy 49 9.4 44 6.7 83 83 NNE 8 13 30.24 1024 10 16 N/A
8:53 am 08:53 Cloudy 48 8.9 37 2.8 66 66 N 10 17 30.27 1025 10 16 N/A
9:53 am 09:53 Cloudy 51 10.6 38 3.3 61 61 N 8 13 30.28 1025 10 16 N/A
10:53 am 10:53 Cloudy 50 10 35 1.7 57 57 NNE 10 17 30.30 1026 10 16 N/A
11:53 am 11:53 Mostly Cloudy 54 12.2 35 1.7 49 49 N 12 19 30.30 1026 10 16 N/A
12:53 pm 12:53 Sunny 56 13.3 34 1.1 44 44 N 10 17 30.30 1026 10 16 N/A
1:53 pm 13:53 Sunny 56 13.3 33 0.6 42 42 NNW 8 13 30.29 1026 10 16 N/A
2:53 pm 14:53 Sunny 58 14.4 34 1.1 41 41 VRB 6 9 30.27 1025 10 16 N/A
3:53 pm 15:53 Mostly Cloudy 57 13.9 33 0.6 41 41 NE 10 17 30.27 1025 10 16 N/A
4:53 pm 16:53 Sunny 56 13.3 31 -0.6 39 39 N 9 15 30.26 1025 10 16 N/A
5:53 pm 17:53 Sunny 56 13.3 32 undefined 40 40 N 9 15 30.28 1026 10 16 N/A
6:53 pm 18:53 Sunny 56 13.3 32 undefined 40 40 N 13 20 30.27 1025 10 16 N/A
7:53 pm 19:53 Sunny 53 11.7 31 -0.6 43 43 N 5 7 30.29 1026 10 16 N/A
8:53 pm 20:53 Clear 50 10 33 0.6 52 52 NNE 3 6 30.31 1027 10 16 N/A
9:53 pm 21:53 Clear 45 7.2 38 3.3 77 77 N N/A 30.34 1027 10 16 N/A
10:53 pm 22:53 Clear 47 8.3 33 0.6 59 59 NNE 5 7 30.35 1028 10 16 N/A
11:53 pm 23:53 Clear 43 6.1 37 2.8 80 80 N 5 7 30.35 1028 10 16 N/A

Powered by AerisWeather